Temperature
26 24 25 25 25 26 26 26 25 25 25 25 24 24 23 23 23 23 23 23 23 23 24 23 23 22 22 21 21 21 20 20 19 19 19 19 19 19 18 18 18 18 18 18
24 25 26 26 26 26 26 26 25 26 26 25 24 24 23 23 23 23 23 23 23 24 23 23 23 22 22 22 21 21 20 20 20 19 19 19 19 19 19 18 18 18 18 18
26 26 26 27 27 26 26 26 26 26 25 24 25 24 24 23 24 24 24 24 24 24 24 24 23 23 22 22 22 21 21 20 20 20 19 19 19 19 18 18 18 18 18 18
25 25 26 27 27 26 26 26 26 26 24 23 24 23 23 22 22 23 24 24 24 24 24 24 24 23 23 23 22 21 21 21 20 20 19 19 19 19 19 19 18 18 18 18
25 26 27 27 27 27 26 25 25 25 23 23 23 23 22 22 22 22 23 24 25 25 25 25 24 24 23 23 22 22 21 21 20 20 19 19 19 19 19 19 18 18 18 18
25 26 27 27 27 27 25 23 22 20 21 23 23 23 23 21 23 23 23 24 25 25 25 25 24 24 23 23 22 22 21 21 21 20 20 19 19 19 19 19 19 18 18 18
25 25 26 27 27 26 24 22 22 23 21 22 22 22 22 23 23 23 24 25 25 25 25 25 24 24 24 23 23 22 22 21 21 20 20 20 19 19 19 19 19 18 18 18
24 24 25 26 26 25 24 22 22 23 22 21 21 22 22 23 23 24 25 25 25 25 25 25 25 24 24 24 23 23 22 22 21 21 20 20 20 20 19 19 19 19 19 19
22 23 25 26 26 24 23 22 21 20 21 21 21 21 22 23 23 23 24 24 25 25 25 25 24 24 24 24 23 23 23 22 22 21 21 20 20 20 20 19 19 19 19 19
21 23 24 25 25 24 23 19 18 19 20 22 23 22 22 24 23 22 22 23 24 25 25 25 24 24 24 24 23 23 22 22 22 21 21 21 20 20 20 19 19 19 19 19
21 22 24 24 25 25 23 21 18 17 19 20 22 22 22 22 22 21 22 23 24 25 25 25 25 24 24 24 23 23 22 22 22 21 21 21 20 20 20 19 19 19 19 19
19 19 21 22 23 23 24 22 19 21 20 18 20 21 22 21 21 21 22 23 25 25 25 25 25 24 24 24 23 23 23 22 22 21 21 21 20 20 20 20 19 19 19 19
19 19 20 22 22 22 22 21 19 17 16 17 20 22 21 20 21 22 22 23 24 25 25 25 24 24 24 24 23 23 23 22 22 21 21 21 20 20 20 20 19 19 19 19
18 17 19 21 21 21 22 22 20 19 18 18 19 21 21 20 20 20 22 22 23 23 24 24 24 24 24 23 23 23 22 22 22 21 21 21 21 20 20 20 19 19 19 19
18 18 19 20 21 21 22 22 21 21 20 20 20 20 20 19 19 20 21 22 22 22 23 23 23 23 23 23 23 22 22 22 22 21 21 21 20 20 20 20 19 19 19 18
16 18 19 20 20 21 21 21 21 21 21 20 20 20 19 19 20 20 20 21 21 22 22 22 23 22 22 22 22 22 22 22 22 21 21 21 20 20 20 19 19 19 19 18
15 17 18 18 19 21 20 21 21 20 20 20 20 19 18 18 18 19 20 20 20 21 22 22 22 22 22 22 22 22 22 22 22 21 21 21 20 20 19 19 19 19 19 18
15 15 14 16 19 20 20 19 20 19 18 18 18 18 18 18 18 19 20 20 20 21 21 22 22 22 22 22 22 22 22 22 21 21 21 20 20 20 19 19 19 18 18 18
13 14 14 14 17 18 19 19 18 18 18 18 17 17 17 18 19 19 20 20 21 21 21 21 22 22 22 22 22 21 21 21 21 21 20 20 20 19 19 18 18 18 18 18
12 13 13 14 17 17 18 18 18 18 18 17 17 17 17 18 17 18 19 20 20 20 21 21 21 22 21 22 22 21 21 21 20 20 20 20 19 19 18 18 18 18 17 17
14 13 14 14 16 16 17 17 18 18 18 16 16 16 17 17 17 18 18 19 19 20 20 20 20 21 21 21 21 21 20 20 20 20 19 19 19 18 18 18 17 17 17 16
13 13 13 13 15 16 16 16 16 16 16 16 16 16 17 17 18 18 18 18 19 19 19 19 20 20 20 20 20 20 20 19 19 19 19 18 18 18 18 17 17 17 16 16
12 12 12 12 13 14 14 15 16 16 16 16 16 17 17 17 17 17 17 18 18 18 18 19 19 19 19 19 19 19 19 19 18 18 18 18 18 17 17 17 16 16 16 16
12 11 11 12 13 14 15 15 16 16 16 16 17 17 17 17 17 17 17 17 17 17 18 18 18 18 18 18 18 17 18 18 18 18 18 18 18 17 17 16 16 16 15 15
12 12 11 12 12 14 15 15 16 16 16 16 16 16 16 16 16 16 17 17 17 17 17 17 17 17 17 17 17 17 17 17 17 17 17 17 17 17 16 16 15 15 15 15
10 11 11 12 13 12 14 15 15 15 15 16 15 15 16 16 16 16 16 16 16 16 16 16 16 16 16 16 16 16 16 16 16 16 16 16 16 16 15 15 15 15 15 14
Wind_Speed
5 5 2 5 7 6 5 4 5 5 5 6 7 6 6 9 10 10 10 10 11 12 8 7 8 9 9 8 8 8 7 7 6 4 3 3 2 2 2 3 4 6 6 6
6 2 5 4 4 4 4 2 3 2 1 4 4 4 4 8 11 11 12 12 12 10 7 8 9 9 10 10 9 8 8 8 7 5 4 3 2 2 2 2 2 5 6 6
5 6 2 3 2 3 3 5 5 4 2 4 3 4 3 4 6 7 8 9 10 12 12 11 11 10 10 11 11 10 9 8 8 6 4 3 2 2 1 2 2 3 5 6
4 5 2 1 3 5 4 5 6 5 5 1 2 3 7 4 5 8 10 10 11 11 10 10 11 11 12 12 10 9 9 8 7 7 6 6 5 4 4 3 3 2 4 5
5 3 2 3 5 6 4 2 4 4 5 3 2 2 8 2 6 10 11 12 12 11 12 12 13 12 10 9 9 8 8 7 7 8 8 7 5 4 2 2 3 3 2 3
6 3 4 5 2 4 6 8 8 7 5 1 3 4 7 5 8 7 9 10 10 11 11 10 9 8 8 8 8 8 8 7 7 8 8 8 7 5 4 4 3 3 2 2
5 5 3 3 2 3 6 7 4 4 4 5 3 3 9 8 8 9 10 10 9 10 10 10 10 10 10 10 9 9 9 8 7 8 7 7 7 7 7 5 4 3 2 2
2 6 4 3 6 6 5 9 8 6 6 5 2 6 9 7 6 6 6 5 7 9 9 10 11 11 11 11 10 10 10 8 8 8 7 6 6 5 5 5 5 5 4 4
6 6 5 3 2 9 7 4 7 8 4 1 5 7 9 4 3 0 3 5 8 9 9 9 9 9 10 10 11 11 10 9 8 8 7 6 7 6 6 5 4 4 3 3
8 4 5 4 4 5 5 9 7 7 7 3 5 5 5 6 5 2 3 5 7 7 7 7 8 9 9 9 9 9 9 9 8 8 7 7 7 7 6 5 6 5 5 4
5 4 5 4 2 3 4 5 6 5 6 7 4 7 6 8 6 5 6 6 7 8 8 8 7 7 8 7 8 8 9 8 7 8 7 6 6 6 6 6 6 6 5 5
3 5 2 5 4 2 3 6 7 5 4 5 5 7 5 4 4 4 4 4 5 6 7 7 7 7 7 8 8 9 9 9 8 8 7 7 6 6 6 6 6 5 5 5
4 6 2 5 6 5 4 3 4 6 6 6 5 7 4 5 4 2 3 3 3 4 5 5 6 7 7 7 7 7 7 8 7 7 7 7 7 7 7 6 5 5 5 4
5 5 6 8 6 3 0 1 4 5 4 5 7 6 6 6 5 4 3 1 3 3 4 5 5 5 6 6 6 6 6 6 6 7 7 8 8 8 7 6 5 5 5 4
5 4 2 2 2 2 2 2 3 4 7 8 7 6 6 6 5 4 1 2 3 3 3 4 5 4 5 5 5 5 5 5 6 6 7 7 6 6 5 5 5 4 4 4
4 4 2 1 2 0 1 2 2 2 3 4 3 5 4 3 2 2 1 2 3 2 2 3 4 4 4 5 5 5 6 6 7 6 6 4 4 5 6 6 6 5 5 4
2 4 3 2 3 2 2 3 1 1 0 3 4 4 2 1 2 2 1 2 2 2 2 3 3 4 4 4 4 5 5 5 6 6 5 4 5 5 6 6 6 6 5 5
5 4 4 2 2 4 6 2 1 3 2 1 0 1 1 2 2 2 0 2 1 1 1 1 1 2 2 2 2 2 3 5 5 5 5 5 5 5 5 5 6 5 4 5
4 7 4 4 3 3 4 1 0 1 1 1 1 1 2 1 3 4 3 1 1 1 2 2 2 1 1 2 2 3 3 4 4 4 5 6 6 5 5 5 6 5 5 4
6 5 5 4 4 6 5 4 3 2 2 2 0 1 1 2 2 3 4 3 3 3 2 1 1 2 1 1 3 4 3 3 3 4 4 5 6 6 5 5 4 3 4 5
4 4 3 3 3 5 4 5 2 3 5 4 2 2 1 1 4 3 2 2 2 2 2 2 3 2 0 1 3 4 3 3 3 2 3 3 5 6 6 5 3 3 3 3
3 3 3 4 3 6 4 3 2 4 2 2 3 2 2 3 2 1 0 0 1 2 2 2 2 2 2 1 2 3 2 2 1 2 3 3 3 4 4 5 4 4 4 3
3 5 5 5 5 5 4 3 3 2 2 3 3 3 2 2 2 1 1 1 1 1 1 1 2 3 2 1 1 2 2 0 1 2 2 2 3 3 3 4 5 4 4 4
2 1 2 1 4 5 5 3 3 2 2 3 3 2 1 2 1 1 0 0 1 1 1 1 2 2 2 2 1 2 1 0 2 2 1 1 2 2 2 2 3 4 4 5
3 1 1 3 5 5 5 3 3 3 2 2 2 1 1 2 2 2 1 1 2 2 2 1 1 1 1 2 2 2 2 0 1 1 1 1 2 2 1 0 1 2 3 5
4 5 5 6 6 4 6 6 5 3 3 3 2 2 1 2 3 3 2 2 2 2 2 1 1 1 1 0 1 2 1 0 1 0 1 1 1 1 1 1 1 4 0 1
Wind_Direction
31 70 189 212 192 189 181 191 228 241 201 169 202 228 216 191 194 201 203 202 208 217 207 186 184 177 172 175 179 184 182 176 162 157 163 164 187 190 197 211 215 207 201 196
35 286 235 205 181 169 172 193 238 300 127 157 194 254 236 198 205 207 205 206 210 209 191 186 183 179 182 186 188 188 190 184 181 180 172 167 162 178 194 211 216 214 203 200
193 235 208 157 155 161 207 194 202 189 77 53 95 326 260 230 219 225 219 211 209 206 199 191 187 187 187 193 194 195 194 190 187 176 146 121 98 87 145 213 221 221 208 205
232 254 209 165 212 165 245 228 180 156 118 334 96 265 281 243 242 232 225 213 211 208 198 190 188 190 196 200 194 192 189 188 186 173 172 172 178 191 207 201 209 225 216 208
247 235 190 223 229 173 202 74 111 113 119 71 41 148 286 287 248 244 230 219 213 202 195 192 192 194 197 191 187 187 182 184 183 181 183 184 192 196 191 183 200 223 228 216
243 255 219 215 211 149 128 74 57 50 73 113 227 172 274 238 224 237 228 218 209 199 194 191 186 179 183 179 180 180 179 188 185 186 186 190 194 190 188 197 205 222 228 226
306 303 267 192 125 55 98 92 44 12 17 248 257 200 248 252 235 226 223 218 202 189 184 181 178 179 182 181 183 182 182 191 189 188 193 195 196 192 198 202 203 209 219 222
203 286 271 213 184 181 164 141 158 188 209 261 289 229 254 269 265 239 222 198 176 178 183 186 187 184 184 184 183 183 186 192 188 190 197 196 193 194 201 199 199 207 215 220
180 249 288 269 213 142 134 157 156 134 144 171 279 285 301 314 336 180 165 160 176 183 183 186 184 183 184 185 187 187 187 191 191 193 192 194 195 198 202 198 198 208 214 217
162 230 292 307 72 41 133 139 103 122 145 215 283 279 260 281 272 254 189 186 187 178 178 183 182 183 186 187 186 181 185 194 196 193 194 200 200 203 201 193 203 209 212 209
138 170 304 9 125 176 104 95 103 112 145 156 219 267 237 238 240 227 217 200 187 180 181 182 182 182 180 176 177 181 188 192 196 198 198 197 199 200 197 201 210 210 208 201
131 127 241 279 291 293 142 150 143 145 191 168 172 257 290 261 254 228 222 205 182 179 179 172 171 167 168 175 183 188 192 196 201 198 193 198 199 196 201 210 212 204 205 203
127 112 77 347 344 5 60 99 119 118 116 150 169 255 324 350 337 291 244 205 169 163 166 159 162 170 177 183 186 192 196 202 199 189 190 195 199 201 207 211 208 201 201 196
112 101 159 191 214 224 239 124 144 123 141 190 216 245 304 320 316 313 300 216 147 153 156 158 169 178 181 183 183 190 196 194 190 189 195 202 204 206 208 205 201 198 193 189
94 114 149 215 235 196 200 236 193 178 180 185 222 221 259 269 262 274 272 137 126 136 155 166 171 178 179 182 181 183 190 186 183 185 197 210 208 201 198 196 193 189 187 191
67 122 105 359 347 163 299 302 233 218 188 198 208 245 268 290 325 1 25 117 135 154 176 185 176 178 179 182 185 185 193 189 178 185 202 202 197 202 198 195 188 183 188 184
84 122 115 239 310 39 281 270 220 186 284 172 196 239 293 346 330 304 252 128 154 186 193 201 197 195 194 192 182 183 191 176 172 180 193 196 199 205 203 197 186 186 188 183
136 116 127 141 104 210 241 316 112 115 46 19 196 282 257 236 278 304 193 158 204 250 246 250 225 198 196 182 166 164 148 154 165 172 181 188 195 203 192 186 192 185 184 184
143 135 120 128 167 265 296 310 68 138 301 358 77 354 4 1 30 11 2 4 273 277 256 237 228 211 135 132 143 137 142 157 163 175 189 193 191 192 188 195 199 189 187 190
58 90 115 131 159 216 243 290 303 139 251 319 360 261 332 49 48 291 325 348 13 23 19 20 41 66 86 111 136 141 153 161 181 194 199 192 182 181 187 200 203 191 189 200
35 48 110 155 196 251 268 304 360 162 242 302 301 274 253 226 216 250 306 341 16 38 49 54 50 62 19 100 127 139 157 191 202 182 171 173 178 186 182 176 179 176 183 195
160 141 166 148 180 244 314 20 163 227 283 294 292 275 240 223 238 270 248 63 38 41 57 63 53 32 19 52 124 132 182 232 165 148 150 158 172 180 173 167 168 171 182 190
182 187 183 188 215 261 293 260 262 220 233 265 262 267 231 239 244 303 352 39 27 22 56 84 76 38 15 344 153 179 228 201 129 138 145 150 157 162 161 174 178 181 192 197
293 140 140 271 282 295 305 303 300 268 238 267 265 247 224 225 221 181 302 294 338 315 318 67 68 39 336 326 334 283 276 149 127 135 145 131 129 140 160 183 188 196 202 206
240 163 150 264 282 313 315 296 293 311 331 340 323 281 218 195 227 219 222 271 290 293 317 19 49 303 293 336 360 344 331 113 125 121 103 100 124 143 161 192 250 222 226 217
220 195 193 231 236 230 267 281 292 296 296 292 290 295 285 211 224 234 237 251 278 300 311 300 274 267 274 298 345 331 332 30 144 122 63 91 120 122 133 131 50 39 47 180
Height
1488 1495 1501 1499 1498 1499 1502 1508 1511 1506 1499 1503 1507 1506 1504 1504 1507 1508 1510 1512 1514 1515 1518 1521 1524 1526 1529 1531 1533 1535 1537 1539 1540 1542 1543 1544 1545 1547 1548 1549 1550 1551 1552 1553
1495 1499 1493 1491 1493 1497 1501 1507 1508 1503 1498 1502 1507 1507 1503 1502 1503 1504 1506 1508 1510 1513 1516 1519 1522 1524 1526 1529 1531 1533 1535 1537 1539 1541 1542 1544 1545 1546 1547 1548 1549 1550 1551 1552
1496 1494 1489 1491 1494 1498 1500 1504 1504 1505 1502 1503 1507 1511 1506 1502 1502 1503 1504 1506 1507 1510 1512 1515 1518 1521 1524 1527 1529 1531 1534 1536 1538 1540 1541 1542 1544 1545 1546 1547 1548 1549 1550 1550
1492 1488 1488 1490 1493 1495 1503 1493 1496 1501 1510 1520 1514 1529 1511 1504 1502 1500 1500 1502 1503 1506 1509 1512 1515 1518 1521 1524 1527 1530 1532 1534 1536 1538 1540 1541 1542 1543 1544 1546 1547 1548 1548 1549
1491 1486 1487 1490 1489 1489 1494 1491 1496 1502 1512 1522 1519 1528 1518 1505 1504 1498 1495 1496 1498 1502 1505 1508 1512 1515 1519 1522 1525 1528 1530 1532 1534 1536 1538 1539 1540 1542 1543 1544 1545 1546 1547 1547
1486 1483 1483 1483 1482 1485 1489 1497 1505 1514 1521 1534 1523 1528 1524 1508 1499 1493 1490 1492 1494 1498 1502 1505 1509 1513 1517 1520 1523 1525 1527 1530 1532 1534 1535 1537 1538 1540 1541 1542 1543 1544 1545 1546
1491 1485 1481 1480 1485 1487 1492 1511 1533 1534 1543 1539 1523 1525 1519 1494 1489 1487 1486 1488 1491 1495 1499 1502 1506 1509 1513 1516 1520 1522 1525 1527 1529 1531 1533 1534 1536 1538 1539 1540 1541 1542 1543 1544
1502 1502 1483 1479 1482 1490 1494 1505 1531 1542 1545 1538 1525 1526 1505 1487 1484 1483 1484 1486 1489 1492 1496 1499 1503 1506 1510 1514 1517 1520 1522 1524 1527 1529 1531 1533 1534 1535 1537 1538 1539 1540 1541 1541
1503 1501 1481 1477 1477 1483 1496 1504 1506 1526 1533 1538 1531 1517 1498 1485 1484 1483 1483 1485 1487 1490 1494 1497 1500 1504 1508 1511 1514 1517 1520 1522 1525 1527 1529 1530 1532 1533 1534 1536 1537 1538 1539 1540
1491 1497 1485 1479 1478 1482 1486 1498 1514 1527 1541 1543 1530 1521 1513 1493 1488 1484 1484 1484 1485 1489 1492 1495 1498 1502 1505 1509 1512 1515 1518 1520 1523 1525 1526 1528 1530 1531 1533 1534 1534 1536 1537 1537
1486 1496 1492 1485 1486 1489 1492 1500 1512 1525 1526 1539 1540 1525 1494 1490 1486 1484 1482 1483 1484 1487 1490 1493 1496 1500 1503 1507 1510 1513 1516 1518 1520 1522 1524 1526 1527 1529 1530 1531 1532 1533 1534 1535
1488 1498 1504 1494 1485 1483 1484 1493 1505 1517 1525 1530 1532 1520 1485 1484 1483 1482 1481 1482 1483 1486 1489 1492 1495 1498 1502 1504 1507 1511 1513 1515 1518 1520 1521 1523 1525 1526 1528 1529 1530 1531 1532 1532
1487 1499 1511 1507 1501 1491 1491 1493 1499 1509 1522 1531 1530 1513 1485 1483 1482 1481 1481 1482 1483 1485 1488 1491 1494 1497 1499 1502 1505 1508 1511 1513 1515 1517 1519 1520 1522 1523 1525 1526 1528 1529 1529 1529
1482 1497 1505 1511 1507 1497 1495 1494 1497 1503 1518 1523 1517 1505 1491 1487 1484 1482 1481 1482 1483 1485 1487 1489 1491 1494 1497 1500 1502 1505 1507 1510 1512 1514 1516 1517 1519 1520 1522 1523 1525 1526 1526 1527
1483 1497 1496 1496 1492 1491 1492 1492 1493 1496 1502 1509 1503 1501 1492 1487 1485 1482 1481 1482 1484 1485 1486 1488 1489 1492 1494 1498 1500 1502 1504 1507 1509 1511 1513 1514 1516 1517 1519 1520 1521 1523 1524 1524
1487 1494 1495 1496 1493 1491 1493 1491 1491 1491 1493 1495 1495 1495 1487 1485 1485 1483 1482 1483 1484 1485 1486 1487 1488 1490 1492 1495 1497 1499 1501 1503 1505 1508 1510 1512 1513 1514 1515 1517 1518 1519 1520 1521
1492 1495 1502 1506 1498 1494 1501 1493 1491 1491 1490 1491 1495 1492 1486 1486 1485 1484 1483 1483 1484 1484 1485 1486 1487 1488 1490 1492 1494 1496 1498 1501 1502 1504 1507 1509 1511 1511 1513 1514 1514 1515 1517 1517
1492 1498 1505 1509 1503 1511 1498 1487 1487 1489 1490 1489 1489 1487 1486 1485 1484 1483 1483 1483 1483 1484 1484 1485 1486 1487 1489 1491 1492 1494 1496 1497 1499 1500 1502 1505 1507 1508 1509 1510 1511 1512 1513 1514
1488 1495 1507 1514 1512 1505 1494 1489 1488 1491 1492 1488 1487 1486 1485 1484 1483 1482 1483 1483 1482 1483 1484 1485 1486 1487 1488 1489 1491 1492 1493 1494 1495 1496 1498 1500 1501 1504 1505 1506 1507 1509 1509 1510
1490 1493 1505 1511 1511 1512 1497 1487 1485 1489 1494 1487 1486 1486 1485 1484 1488 1485 1482 1482 1482 1482 1483 1484 1485 1485 1486 1487 1488 1490 1491 1491 1492 1493 1495 1496 1497 1499 1501 1503 1505 1505 1506 1507
1498 1502 1506 1509 1508 1502 1491 1486 1485 1497 1494 1487 1486 1486 1485 1484 1485 1483 1482 1482 1482 1482 1482 1483 1484 1484 1485 1486 1486 1487 1488 1489 1490 1491 1492 1493 1495 1496 1497 1499 1501 1503 1504 1504
1501 1504 1508 1510 1509 1505 1489 1487 1491 1491 1486 1485 1485 1484 1484 1483 1482 1481 1481 1481 1482 1481 1481 1482 1483 1483 1484 1484 1485 1485 1486 1487 1488 1488 1489 1490 1492 1493 1494 1495 1497 1499 1500 1501
1500 1500 1501 1502 1501 1492 1489 1488 1487 1486 1485 1484 1483 1483 1483 1482 1481 1481 1481 1480 1480 1481 1480 1481 1481 1481 1483 1483 1483 1483 1484 1485 1486 1487 1487 1487 1489 1490 1491 1492 1494 1495 1496 1497
1496 1496 1497 1497 1492 1489 1488 1486 1485 1485 1484 1483 1483 1482 1482 1481 1480 1480 1480 1480 1479 1480 1479 1479 1479 1480 1481 1481 1481 1482 1482 1483 1484 1484 1484 1485 1486 1487 1489 1490 1491 1492 1492 1493
1495 1495 1496 1495 1491 1488 1486 1485 1485 1484 1483 1482 1481 1481 1480 1480 1480 1480 1479 1478 1478 1478 1477 1477 1478 1478 1479 1480 1480 1481 1482 1482 1482 1482 1482 1482 1483 1484 1485 1486 1487 1488 1488 1489
1492 1493 1494 1493 1488 1488 1486 1484 1484 1483 1482 1481 1480 1480 1479 1478 1478 1478 1477 1476 1476 1476 1475 1476 1476 1476 1476 1477 1477 1479 1480 1480 1480 1480 1480 1480 1481 1481 1483 1483 1484 1484 1484 1483